Home > Weather > Pittsburgh > Past weeks

Flag for USA Weather for the Past 2 Weeks in Pittsburgh, Pennsylvania, USA

Now
54 °F

Mostly cloudy.


Feels Like: 54 °F
Forecast: 50 / 65 °F
Wind: 3 mph from Northwest

Location: Allegheny County Airport

Current Time: May 4, 2016 at 2:18:38 AM

Latest Report: May 4, 2016 at 12:53 AM


Visibility: 10 mi

Pressure: 29.79 "Hg

Humidity: 62%

Dew Point: 41 °F

Location of PittsburghLocation

Historic Weather in Pittsburgh — Graph

°F

Pittsburgh Temperature Yesterday

Maximum temperature yesterday: 62 °F (at 2:53 PM)
Minimum temperature yesterday: 48 °F (at 5:53 AM)
Average temperature yesterday: 55 °F

High & Low Weather Summary for the Past Weeks

 TemperatureHumidityPressure
High79 °F (Apr 25, 4:53 PM)97% (Apr 29, 5:01 AM)30.28 "Hg (Apr 29, 5:01 AM)
Low41 °F (Apr 24, 6:53 AM)12% (Apr 20, 4:53 PM)29.71 "Hg (Apr 26, 5:53 AM)
Average59 °F61%29.97 "Hg
* Reported Apr 18 11:53 PM — May 3 11:53 PM, Pittsburgh, Weather by CustomWeather, © 2016

Note: Actual official high and low records may vary slightly from our data, if they occured in-between our weather recording intervals... More about our weather records

Advertising

Pittsburgh Weather History for the Previous 24 Hours

Scroll right to see more
 ConditionsComfort  
Time TempWeatherWind HumidityBarometerVisibility
11:53 PM
Tue, May 3
55 °FMostly cloudy.5 mph59%29.79 "Hg10 mi
10:53 PM56 °FMostly cloudy.6 mph60%29.82 "Hg10 mi
9:53 PM57 °FOvercast.6 mph55%29.83 "Hg10 mi
8:53 PM57 °FPartly sunny.6 mph55%29.82 "Hg10 mi
7:53 PM58 °FPartly sunny.6 mph54%29.81 "Hg10 mi
6:53 PM60 °FOvercast.3 mph49%29.80 "Hg10 mi
5:53 PM62 °FCloudy.8 mph46%29.80 "Hg10 mi
4:53 PM62 °FOvercast.N/A44%29.79 "Hg10 mi
3:53 PM62 °FMostly cloudy.5 mph46%29.80 "Hg10 mi
2:53 PM62 °FMostly cloudy.10 mph48%29.82 "Hg10 mi
1:53 PM61 °FOvercast.No wind52%29.83 "Hg10 mi
12:53 PM58 °FOvercast.No wind62%29.85 "Hg10 mi
12:00 PM55 °FOvercast.3 mph69%29.85 "Hg10 mi
10:53 AM51 °FOvercast.3 mph77%29.88 "Hg10 mi
9:53 AM50 °FOvercast.7 mph80%29.88 "Hg10 mi
8:53 AM50 °FLow clouds.6 mph80%29.88 "Hg10 mi
7:53 AM49 °FLow clouds.No wind86%29.87 "Hg9 mi
6:53 AM48 °FLow clouds.No wind86%29.88 "Hg9 mi
5:53 AM48 °FLow clouds.3 mph86%29.88 "Hg10 mi
4:53 AM49 °FMostly cloudy.5 mph86%29.87 "Hg10 mi
3:53 AM49 °FMostly cloudy.7 mph84%29.86 "Hg10 mi
3:01 AM50 °FLow clouds.6 mph83%29.86 "Hg10 mi
Weather by CustomWeather, © 2016

See weather overviewHow to use our weather pages